Cosmos 1733 Rocket - Orbit

View from above orbital plane
View from above orbital plane
View from above satellite
View from above satellite

Ground track
Ground track

The orbit data is extracted from the following two-line orbital elements,

1 16612U 86018B   13142.13162997  .00000378  00000-0  43230-4 0  5998
2 16612 082.5185 250.8078 0018044 023.7289 032.1989 14.83220306370949
Epoch (UTC): 22 May 2013 03:09:32
Eccentricity: 0.0018044
inclination: 82.5185°
perigee height: 606 km
apogee height: 632 km
right ascension of ascending node: 250.8078°
argument of perigee: 23.7289°
revolutions per day: 14.83220306
mean anomaly at epoch: 32.1989°
orbit number at epoch: 37094

The dashed part of the orbit path shows where the satellite is in the earth's shadow,  

Developed and maintained by Chris Peat, Heavens-Above GmbH. Please read the updated FAQ before sending e-mail. Imprint. DLR